Location: Prague
(50.0830°N, 14.4670°E)
Time: 11:35:04
(UTC+01:00)

STARLINK-1617 - Visible Passes

Search period start: 17 January 2021 00:00
Search period end: 27 January 2021 00:00
Orbit: 546 x 548 km, 53.1° (Epoch: 17 January)

Date Brightness Start Highest point End Pass type
(mag) Time Alt. Az. Time Alt. Az. Time Alt. Az.
17 Jan 5.0 06:10:01 10° SSW 06:13:51 38° SE 06:17:41 10° ENE visible
18 Jan 6.6 04:28:09 10° SE 04:28:47 11° SE 04:29:38 10° ESE visible
18 Jan 4.5 06:03:48 12° SW 06:07:29 47° SSE 06:11:27 10° ENE visible
19 Jan 6.4 04:22:47 14° ESE 04:22:47 14° ESE 04:24:25 10° E visible
19 Jan 4.1 05:58:26 20° SW 06:01:07 57° SSE 06:05:10 10° ENE visible
20 Jan 6.4 04:17:13 15° ESE 04:17:13 15° ESE 04:18:35 10° E visible
20 Jan 3.8 05:52:50 30° SW 05:54:45 69° SSE 05:58:53 10° ENE visible
21 Jan 6.5 04:11:29 15° E 04:11:29 15° E 04:12:33 10° E visible
21 Jan 3.6 05:47:06 42° WSW 05:48:24 81° SSE 05:52:33 10° ENE visible
22 Jan 6.6 04:05:37 14° E 04:05:37 14° E 04:06:23 10° E visible
22 Jan 3.5 05:41:14 56° WSW 05:42:04 87° NNW 05:46:13 10° ENE visible
23 Jan 6.7 03:59:40 13° E 03:59:40 13° E 04:00:10 10° ENE visible
23 Jan 3.4 05:35:16 67° WNW 05:35:43 78° NNW 05:39:52 10° ENE visible
23 Jan 3.9 07:11:27 10° WNW 07:15:32 56° N 07:19:37 10° E visible
24 Jan 6.9 03:53:38 11° ENE 03:53:38 11° ENE 03:53:53 10° ENE visible
24 Jan 3.5 05:29:13 69° NNW 05:29:23 70° NNW 05:33:31 10° ENE visible
24 Jan 3.9 07:05:08 10° WNW 07:09:13 57° N 07:13:18 10° E visible
25 Jan 7.0 03:47:32 10° ENE 03:47:32 10° ENE 03:47:33 10° ENE visible
25 Jan 3.7 05:23:08 64° N 05:23:08 64° N 05:27:09 10° ENE visible
25 Jan 3.9 06:58:47 10° WNW 07:02:53 60° N 07:06:59 10° E visible
26 Jan 3.9 05:16:59 58° NNE 05:16:59 58° NNE 05:20:47 10° ENE visible
26 Jan 3.8 06:52:35 11° WNW 06:56:32 65° NNE 07:00:39 10° E visible
